Probability
8 10 9 5 2 2 3 4 5 7 6 4 3 3 4 5 4 5 5 5 4 3 3 3 3 4 4 4 4 2 1 1 1 0 0 0 0 0 0 0 0 0 0
7 8 8 5 2 1 2 4 7 8 7 5 5 4 4 4 4 4 4 4 3 3 3 4 3 4 5 6 5 4 3 2 2 1 0 0 0 0 0 0 0 0 0
6 7 8 8 6 3 3 7 11 10 7 6 6 5 4 3 3 3 3 3 3 3 4 5 4 5 6 6 6 5 4 3 3 2 2 2 1 1 1 1 0 0 0
5 6 7 9 10 9 10 13 15 14 11 9 7 5 4 3 3 3 3 3 4 4 6 6 6 5 6 6 7 6 6 5 5 4 3 3 3 3 2 1 0 1 1
5 5 7 10 12 13 15 17 18 18 16 14 10 6 5 4 3 3 3 4 6 7 8 8 6 4 4 4 5 6 6 7 7 7 5 5 6 7 6 2 1 2 2
5 6 9 12 14 15 16 16 19 21 21 18 13 9 8 6 4 2 2 4 8 10 12 11 6 2 2 2 2 2 3 5 7 7 7 8 9 10 10 7 5 5 4
6 8 11 14 15 16 15 15 18 22 24 23 18 16 15 10 4 1 1 3 8 13 16 15 9 4 2 2 1 0 0 2 3 4 6 8 9 11 13 12 11 9 7
9 11 14 15 17 18 17 17 19 23 25 25 23 24 22 13 3 0 0 2 6 12 16 17 13 9 5 2 2 2 3 2 1 1 3 6 6 9 12 12 12 10 8
11 13 16 17 18 20 19 20 22 24 25 24 24 26 23 13 3 0 0 2 6 11 14 14 12 9 5 2 2 5 7 6 4 1 1 2 2 3 6 7 8 8 7
12 15 18 19 20 22 23 23 24 24 23 21 22 22 18 10 4 1 0 2 7 11 13 12 7 4 2 0 1 3 6 8 8 6 4 3 3 3 3 4 6 8 8
18 20 21 20 21 23 24 24 22 20 18 17 16 15 11 6 3 1 0 2 5 8 10 9 5 1 0 0 0 1 2 4 8 9 8 6 6 7 7 6 8 11 13
21 21 21 20 20 21 22 21 18 15 12 11 10 10 8 5 2 0 0 1 1 2 4 4 3 1 0 0 0 0 0 1 4 6 5 4 5 8 9 9 9 11 14
15 15 15 15 15 15 14 13 11 9 7 6 6 6 6 6 3 1 0 0 0 0 0 1 1 0 0 0 0 0 0 0 1 1 1 1 3 6 8 8 8 9 10
9 8 8 9 8 7 6 5 5 5 4 3 3 3 4 4 3 1 0 0 0 0 0 0 0 0 0 0 0 0 0 0 0 0 1 2 3 4 5 5 5 5 5
6 6 6 5 3 1 1 1 1 1 1 1 2 1 1 1 1 1 0 0 0 0 0 0 0 0 0 0 1 1 1 1 1 0 1 2 3 3 3 2 3 3 3
5 4 4 3 1 0 0 0 0 0 0 0 0 0 0 0 0 0 0 0 0 0 0 0 0 0 0 1 2 2 2 2 2 1 1 2 3 3 3 3 3 3 2
2 1 1 1 0 0 0 0 0 0 0 0 0 0 0 0 0 0 0 0 0 0 0 0 0 0 0 1 2 3 3 3 3 3 2 3 3 3 3 3 3 2 1
0 0 0 0 0 0 0 0 0 0 0 0 0 0 0 0 0 0 0 0 0 0 0 0 0 0 0 0 1 2 3 3 3 3 3 3 3 3 2 2 2 2 1
0 0 0 0 0 0 0 0 0 0 0 0 0 0 0 0 0 0 0 0 0 0 0 0 0 0 0 0 0 1 2 3 3 3 3 3 3 3 2 1 1 1 0
0 0 0 0 0 0 0 0 0 0 0 0 0 0 0 0 0 0 0 0 0 0 0 0 0 0 0 0 0 0 1 2 2 2 2 2 2 2 2 1 0 0 0
0 0 0 0 0 0 0 0 0 0 0 0 0 0 0 0 0 0 0 0 0 0 0 0 0 0 0 0 0 0 0 1 1 1 1 1 1 2 2 1 0 0 0
0 0 0 0 0 0 0 0 0 0 0 0 0 0 0 0 0 0 0 0 0 0 0 0 0 0 0 0 0 0 0 0 0 0 0 0 0 2 2 1 0 0 0
0 0 0 0 0 0 0 0 0 0 0 0 0 0 0 0 0 0 0 0 0 0 0 0 0 0 0 0 0 0 0 0 0 0 0 0 0 1 1 1 0 0 0
0 0 0 0 0 0 0 0 0 0 0 0 0 0 0 0 0 0 0 0 0 0 0 0 0 0 0 0 0 0 0 0 0 0 0 0 0 0 0 0 0 0 0
0 0 0 0 0 0 0 0 0 0 0 0 0 0 0 0 0 0 0 0 0 0 0 0 0 0 0 0 0 0 0 0 0 0 0 0 0 0 0 0 0 0 0
0 0 0 0 0 0 0 0 0 0 0 0 0 0 0 0 0 0 0 0 0 0 0 0 0 0 0 0 0 0 0 0 0 0 0 0 0 0 0 0 0 0 0
Wind_Speed
11 11 10 11 11 10 9 10 9 9 9 10 10 9 9 9 9 9 9 8 9 8 8 8 8 7 5 5 5 5 5 6 6 5 4 4 5 7 4 6 7 7 8
11 10 10 10 10 10 10 10 10 10 10 10 10 10 10 10 9 10 10 10 10 9 9 9 9 7 8 7 6 7 6 5 7 7 5 5 7 7 7 7 8 8 8
10 11 10 10 10 10 10 9 10 10 10 10 10 10 10 9 9 10 10 10 10 10 9 9 9 9 9 8 8 8 7 7 7 7 7 5 6 6 7 9 10 7 9
10 11 10 10 10 10 9 9 9 9 10 10 10 10 10 10 10 10 10 10 10 10 10 10 10 10 10 10 9 9 8 8 7 8 8 7 7 7 7 8 8 8 8
10 10 9 9 8 9 8 8 9 9 10 10 10 10 10 9 9 10 10 10 10 10 10 10 10 9 8 8 8 8 9 8 8 8 8 8 8 6 7 7 8 7 7
8 8 8 8 8 8 8 8 8 8 8 9 9 10 9 8 5 7 9 9 9 10 10 9 9 9 9 10 10 9 9 9 10 8 8 8 8 7 6 7 7 8 8
7 7 7 7 7 7 7 7 7 7 7 7 7 7 8 6 4 7 9 9 9 8 9 8 8 7 9 10 11 13 13 13 12 10 11 10 9 7 7 9 8 9 9
7 6 6 7 7 6 6 6 6 5 5 5 5 5 5 3 3 6 7 9 9 9 9 9 9 8 7 8 9 10 12 12 13 13 12 11 9 7 7 9 9 9 10
6 5 5 5 6 6 5 5 4 4 3 4 4 3 3 2 2 3 5 6 7 8 7 7 8 8 4 5 8 10 10 9 9 9 10 10 8 7 7 8 9 9 11
5 5 4 4 5 5 4 3 3 3 3 3 2 2 1 0 2 1 4 4 5 5 5 4 3 4 3 4 7 8 10 9 8 7 9 10 11 11 11 11 10 10 10
6 6 6 5 5 5 4 3 3 3 3 2 2 2 2 3 4 3 1 3 3 4 3 3 1 2 4 4 6 7 6 7 8 8 8 8 8 8 9 9 9 9 10
9 9 8 7 6 6 6 5 4 3 3 3 3 3 3 3 4 3 2 1 4 3 3 2 1 0 3 5 5 4 4 5 6 6 6 6 6 6 6 7 7 9 9
10 10 9 9 8 7 6 5 4 3 3 3 2 2 3 3 4 4 2 1 2 3 2 2 1 1 3 4 5 5 6 5 5 6 6 6 6 5 6 6 8 9 11
10 9 8 8 8 8 6 5 5 5 4 3 3 3 3 3 4 3 2 0 2 2 2 2 5 5 5 3 3 5 5 4 4 5 6 5 5 5 6 6 6 6 8
9 8 7 8 8 7 8 7 7 8 7 5 5 4 4 4 6 7 5 4 4 4 5 3 3 2 3 3 3 3 4 4 5 5 6 6 6 6 6 6 6 7 8
7 7 6 6 5 5 6 7 11 8 9 10 9 7 6 7 5 5 5 4 4 5 5 4 3 3 4 4 4 4 4 4 4 5 6 6 6 7 7 7 7 8 9
8 7 5 6 5 5 4 4 4 6 7 8 8 8 6 5 4 4 5 5 5 6 5 4 4 5 5 6 6 6 6 5 5 6 7 7 7 8 8 8 8 8 9
8 8 6 5 5 5 4 4 3 3 2 3 6 7 5 3 2 3 6 7 4 3 4 4 5 5 5 6 6 7 7 7 6 7 7 8 8 8 8 8 8 9 9
7 6 5 5 4 4 4 4 4 4 3 3 3 3 2 1 3 3 5 5 6 6 6 6 6 6 6 6 6 7 8 8 8 8 8 9 8 8 8 9 9 9 9
7 8 5 4 4 4 4 4 4 4 4 4 4 5 5 5 4 3 4 5 6 6 6 6 6 6 7 7 7 7 8 8 8 8 8 8 8 8 9 10 9 9 9
4 5 2 3 5 5 5 5 5 5 5 4 4 6 6 7 6 6 6 6 6 6 7 7 7 7 7 7 7 8 10 8 8 9 9 9 9 9 8 8 9 9 10
4 4 4 5 4 5 5 5 5 4 5 5 4 2 2 5 6 6 6 6 7 7 7 7 7 7 7 7 8 8 9 9 9 9 9 9 9 9 9 8 9 9 10
4 4 4 4 4 3 3 4 5 5 5 5 5 6 5 6 6 6 7 7 7 7 7 7 7 7 7 7 7 7 8 8 9 10 10 10 9 9 8 9 11 11 11
4 4 4 4 4 4 5 5 5 5 6 6 5 6 6 6 6 7 7 7 7 7 7 7 7 9 11 9 7 7 7 8 10 9 12 11 11 10 9 9 10 11 11
4 4 4 4 4 5 5 5 5 5 6 6 6 6 6 6 6 6 7 7 8 8 9 8 7 8 11 12 10 9 8 8 8 10 10 10 11 11 10 11 10 10 10
4 4 4 4 4 4 4 4 5 5 6 6 6 6 6 6 6 7 7 7 8 8 8 7 9 11 12 10 11 11 8 8 9 9 9 9 10 9 9 8 11 10 10
Wind_Direction
187 188 188 192 195 196 200 204 206 202 200 203 204 206 209 212 212 214 223 211 219 221 221 219 224 242 238 232 231 237 241 249 259 258 231 207 215 254 222 234 241 236 225
182 183 188 191 193 197 201 205 204 202 202 205 207 209 213 214 213 217 222 219 220 223 223 223 225 221 224 243 240 238 240 246 254 258 250 223 215 231 238 247 250 242 254
175 180 183 188 192 199 201 202 202 203 205 205 207 211 215 217 217 221 225 225 226 228 227 226 227 228 227 229 233 238 235 229 237 249 248 241 233 229 231 238 246 251 260
174 180 183 189 192 194 197 199 201 203 205 206 208 214 218 221 223 224 225 229 230 231 230 230 231 229 230 232 231 235 240 242 234 243 248 239 233 226 233 246 243 227 242
176 180 184 186 189 192 194 197 200 205 209 210 213 218 221 224 226 225 227 228 229 231 231 233 236 237 242 240 245 234 231 235 238 237 243 245 239 232 235 246 256 258 246
177 180 181 182 184 188 190 193 197 205 212 213 217 220 221 228 211 213 232 237 232 234 235 234 235 226 228 230 248 258 259 248 249 253 252 251 254 252 254 260 263 262 264
174 177 176 180 182 187 190 191 195 201 206 210 216 221 225 226 188 204 224 244 244 239 237 235 238 228 218 228 224 229 241 247 251 259 264 264 264 258 261 257 257 267 274
166 169 173 177 177 177 181 185 189 191 195 202 212 221 225 218 183 211 221 233 244 243 240 239 239 241 234 239 242 237 238 233 231 234 249 260 265 273 262 262 271 264 262
147 151 160 168 164 164 171 171 172 175 187 197 202 213 218 202 157 200 222 232 238 243 245 246 247 244 238 243 250 251 250 249 236 233 243 255 268 271 265 263 259 260 264
116 115 116 124 131 136 137 139 143 158 169 175 158 158 173 111 98 175 230 244 247 247 241 235 233 254 251 232 249 254 255 257 262 247 236 242 248 244 229 239 254 259 266
99 100 101 104 106 105 105 107 113 117 119 122 121 112 86 57 83 79 301 274 274 268 265 257 220 207 243 245 253 260 268 280 271 264 257 251 245 244 238 233 239 252 262
92 89 86 83 86 95 97 95 95 105 120 121 115 103 96 85 63 71 59 321 319 299 295 311 36 79 252 250 249 258 277 277 266 265 266 266 265 261 257 255 251 253 259
85 82 80 78 72 72 80 87 93 91 84 86 89 85 78 78 96 100 115 208 282 293 326 23 16 254 254 234 216 233 247 251 261 263 265 268 274 280 281 272 263 257 257
84 81 81 78 75 68 57 57 57 52 54 56 51 50 57 62 38 23 6 11 205 241 271 200 206 221 244 262 228 219 237 261 279 282 286 285 282 274 268 271 273 271 270
80 78 78 77 74 72 65 47 48 50 35 25 32 37 28 38 31 7 351 354 348 357 322 283 270 255 246 247 253 258 265 258 254 264 271 273 273 271 269 269 270 275 274
79 75 74 75 73 75 84 85 63 70 75 66 50 35 58 55 34 18 14 358 334 318 297 287 294 294 296 298 295 285 275 276 281 278 275 276 277 277 276 272 268 269 272
67 60 60 62 63 61 63 70 91 100 97 88 81 69 58 46 31 9 347 323 289 277 274 295 306 312 310 306 300 298 299 300 297 285 281 279 278 278 277 276 273 273 275
67 65 53 57 53 50 45 39 37 36 65 93 106 99 85 59 12 330 313 301 278 260 313 324 320 318 314 313 312 311 307 302 295 292 288 284 284 282 281 280 280 283 287
56 56 50 49 50 49 41 36 36 30 15 15 35 93 90 240 227 260 291 321 337 334 333 330 325 323 321 317 315 311 306 302 301 298 292 290 289 287 285 285 287 288 283
66 50 28 35 44 41 31 24 23 17 11 11 9 13 358 331 335 350 341 346 338 338 333 328 327 323 318 314 312 308 304 302 301 297 297 297 295 292 291 291 290 289 287
62 72 45 25 38 28 20 14 12 5 3 2 10 38 351 328 342 348 344 347 343 338 335 329 323 320 320 317 315 311 309 309 310 308 306 304 300 295 291 288 287 285 284
39 41 34 32 32 25 8 3 2 3 1 358 356 28 326 323 348 349 348 344 341 338 336 330 325 326 330 329 323 318 315 314 316 317 314 308 301 295 291 288 287 288 287
32 36 39 34 27 24 350 9 8 4 4 3 356 353 356 355 351 351 348 345 343 340 339 334 326 326 333 327 321 317 316 319 321 318 312 305 300 295 292 288 285 284 283
29 25 27 27 17 11 16 15 12 9 8 6 360 357 356 355 353 352 347 346 340 337 337 333 328 327 328 325 321 321 335 338 326 312 306 300 297 292 289 286 285 286 287
26 19 18 21 19 20 20 15 13 11 8 6 2 359 358 355 352 350 348 344 338 338 338 334 330 330 329 326 328 334 347 332 313 309 301 291 288 288 287 286 287 290 289
25 20 20 26 31 24 19 17 16 13 9 7 6 2 357 353 355 353 351 347 341 338 334 331 332 332 328 328 339 339 325 314 307 299 293 288 289 291 297 295 295 294 294